| time (UTC) | temp F | wind direction | speed MPH | gust MPH | rain 1hr in | rain 24hr in | rain mn in | humidity % | barometer mb |
| 20260509043412 | 44 | 215 | 0.0 | 1.0 | 0.00 | 0.00 | 0.00 | 78 | 1007.0 |
| 20260509042912 | 44 | 311 | 0.0 | 0.0 | 0.00 | 0.00 | 0.00 | 77 | 1006.9 |
| 20260509042412 | 44 | 311 | 0.0 | 0.0 | 0.00 | 0.00 | 0.00 | 77 | 1006.9 |
| 20260509041912 | 44 | 350 | 0.0 | 0.0 | 0.00 | 0.00 | 0.00 | 77 | 1006.9 |
| 20260509041412 | 44 | 350 | 0.0 | 0.0 | 0.00 | 0.00 | 0.00 | 77 | 1006.9 |
| 20260509040912 | 44 | 350 | 0.0 | 0.0 | 0.00 | 0.00 | 0.00 | 77 | 1007.0 |
| 20260509040413 | 44 | 349 | 0.0 | 0.0 | 0.00 | 0.00 | 0.00 | 76 | 1007.1 |
| 20260509035912 | 44 | 349 | 0.0 | 0.0 | 0.00 | 0.00 | 0.00 | 76 | 1007.2 |
| 20260509035412 | 44 | 350 | 0.0 | 0.0 | 0.00 | 0.00 | 0.00 | 76 | 1007.3 |
| 20260509034912 | 45 | 350 | 0.0 | 0.0 | 0.00 | 0.00 | 0.00 | 75 | 1007.2 |
| 20260509034413 | 45 | 350 | 0.0 | 0.0 | 0.00 | 0.00 | 0.00 | 75 | 1007.3 |
| 20260509033913 | 45 | 350 | 0.0 | 0.0 | 0.00 | 0.00 | 0.00 | 75 | 1007.3 |
| 20260509033413 | 45 | 349 | 0.0 | 0.0 | 0.00 | 0.00 | 0.00 | 74 | 1007.3 |
| 20260509032913 | 45 | 350 | 0.0 | 0.0 | 0.00 | 0.00 | 0.00 | 75 | 1007.4 |
| 20260509032413 | 45 | 349 | 0.0 | 0.0 | 0.00 | 0.00 | 0.00 | 75 | 1007.5 |
| 20260509031913 | 45 | 350 | 0.0 | 0.0 | 0.00 | 0.00 | 0.00 | 74 | 1007.5 |
| 20260509031413 | 46 | 350 | 0.0 | 0.0 | 0.00 | 0.00 | 0.00 | 72 | 1007.6 |
| 20260509030913 | 46 | 350 | 0.0 | 0.0 | 0.00 | 0.00 | 0.00 | 72 | 1007.6 |
| 20260509030413 | 45 | 350 | 0.0 | 0.0 | 0.00 | 0.00 | 0.00 | 70 | 1007.6 |
| 20260509025913 | 45 | 350 | 0.0 | 0.0 | 0.00 | 0.00 | 0.00 | 70 | 1007.6 |
| 20260509025413 | 46 | 349 | 0.0 | 0.0 | 0.00 | 0.00 | 0.00 | 71 | 1007.6 |
| 20260509024913 | 46 | 350 | 0.0 | 0.0 | 0.00 | 0.00 | 0.00 | 71 | 1007.8 |
| 20260509024413 | 46 | 350 | 0.0 | 0.0 | 0.00 | 0.00 | 0.00 | 72 | 1007.8 |
| 20260509023913 | 46 | 350 | 0.0 | 0.0 | 0.00 | 0.00 | 0.00 | 70 | 1007.7 |
| 20260509023413 | 47 | 350 | 0.0 | 0.0 | 0.00 | 0.00 | 0.00 | 70 | 1007.7 |
| 20260509022913 | 47 | 350 | 0.0 | 0.0 | 0.00 | 0.00 | 0.00 | 68 | 1007.8 |
| 20260509022413 | 47 | 350 | 0.0 | 0.0 | 0.00 | 0.00 | 0.00 | 64 | 1007.9 |
| 20260509021913 | 48 | 350 | 0.0 | 0.0 | 0.00 | 0.00 | 0.00 | 66 | 1007.8 |
| 20260509021413 | 48 | 350 | 0.0 | 0.0 | 0.00 | 0.00 | 0.00 | 65 | 1007.8 |
| 20260509020913 | 48 | 350 | 0.0 | 0.0 | 0.00 | 0.00 | 0.00 | 65 | 1007.9 |
| 20260509020413 | 49 | 350 | 0.0 | 0.0 | 0.00 | 0.00 | 0.00 | 63 | 1007.9 |
| 20260509015913 | 49 | 350 | 0.0 | 0.0 | 0.00 | 0.00 | 0.00 | 61 | 1007.8 |
| 20260509015413 | 49 | 350 | 0.0 | 0.0 | 0.00 | 0.00 | 0.00 | 60 | 1007.8 |
| 20260509014913 | 50 | 349 | 0.0 | 0.0 | 0.00 | 0.00 | 0.00 | 59 | 1007.8 |
| 20260509014413 | 50 | 349 | 0.0 | 0.0 | 0.00 | 0.00 | 0.00 | 58 | 1007.8 |
| 20260509013913 | 51 | 350 | 0.0 | 0.0 | 0.00 | 0.00 | 0.00 | 57 | 1007.8 |
| 20260509013413 | 51 | 350 | 0.0 | 0.0 | 0.00 | 0.00 | 0.00 | 56 | 1007.7 |
| 20260509012913 | 52 | 350 | 0.0 | 0.0 | 0.00 | 0.00 | 0.00 | 55 | 1007.7 |
| 20260509012413 | 53 | 350 | 0.0 | 0.0 | 0.00 | 0.00 | 0.00 | 54 | 1007.7 |
| 20260509011913 | 53 | 350 | 0.0 | 0.0 | 0.00 | 0.00 | 0.00 | 54 | 1007.7 |
| 20260509011413 | 54 | 349 | 0.0 | 0.0 | 0.00 | 0.00 | 0.00 | 51 | 1007.7 |
| 20260509010913 | 55 | 349 | 0.0 | 0.0 | 0.00 | 0.00 | 0.00 | 50 | 1007.6 |
| 20260509010413 | 56 | 349 | 0.0 | 0.0 | 0.00 | 0.00 | 0.00 | 49 | 1007.6 |
| 20260509005913 | 56 | 349 | 0.0 | 0.0 | 0.00 | 0.00 | 0.00 | 45 | 1007.6 |
| 20260509005413 | 57 | 349 | 0.0 | 0.0 | 0.00 | 0.00 | 0.00 | 43 | 1007.5 |
| 20260509004913 | 58 | 349 | 0.0 | 0.0 | 0.00 | 0.00 | 0.00 | 40 | 1007.5 |
| 20260509004413 | 59 | 349 | 0.0 | 0.0 | 0.00 | 0.00 | 0.00 | 40 | 1007.6 |
| 20260509003913 | 59 | 349 | 0.0 | 0.0 | 0.00 | 0.00 | 0.00 | 38 | 1007.5 |
| 20260509003413 | 60 | 350 | 0.0 | 0.0 | 0.00 | 0.00 | 0.00 | 37 | 1007.5 |
| 20260509002913 | 60 | 349 | 0.0 | 0.0 | 0.00 | 0.00 | 0.00 | 38 | 1007.5 |
| 20260509002413 | 61 | 355 | 0.0 | 0.0 | 0.00 | 0.00 | 0.00 | 37 | 1007.4 |
| 20260509001913 | 61 | 346 | 0.0 | 2.0 | 0.00 | 0.00 | 0.00 | 36 | 1007.4 |
| 20260509001413 | 61 | 350 | 0.0 | 0.0 | 0.00 | 0.00 | 0.00 | 36 | 1007.5 |
| 20260509000913 | 61 | 341 | 0.0 | 0.0 | 0.00 | 0.00 | 0.00 | 36 | 1007.6 |
| 20260509000413 | 61 | 0 | 0.0 | 6.0 | 0.00 | 0.00 | 0.00 | 35 | 1007.6 |
| 20260508235913 | 62 | 347 | 1.0 | 4.0 | 0.00 | 0.00 | 0.00 | 36 | 1007.6 |
| 20260508235413 | 62 | 327 | 1.0 | 8.0 | 0.00 | 0.00 | 0.00 | 35 | 1007.6 |
| 20260508234913 | 62 | 323 | 2.0 | 6.0 | 0.00 | 0.00 | 0.00 | 34 | 1007.6 |
| 20260508234413 | 62 | 337 | 2.0 | 6.0 | 0.00 | 0.00 | 0.00 | 33 | 1007.6 |
| 20260508233913 | 63 | 314 | 3.0 | 9.0 | 0.00 | 0.00 | 0.00 | 33 | 1007.7 |
| 20260508233413 | 63 | 333 | 2.0 | 8.0 | 0.00 | 0.00 | 0.00 | 33 | 1007.6 |
| 20260508232913 | 63 | 313 | 1.0 | 5.0 | 0.00 | 0.00 | 0.00 | 32 | 1007.7 |
| 20260508232413 | 63 | 343 | 1.0 | 5.0 | 0.00 | 0.00 | 0.00 | 31 | 1007.6 |
| 20260508231913 | 63 | 307 | 3.0 | 6.0 | 0.00 | 0.00 | 0.00 | 30 | 1007.6 |
| 20260508231413 | 63 | 350 | 4.0 | 12.0 | 0.00 | 0.00 | 0.00 | 29 | 1007.6 |
| 20260508230913 | 63 | 329 | 5.0 | 9.0 | 0.00 | 0.00 | 0.00 | 29 | 1007.5 |
| 20260508230413 | 63 | 309 | 4.0 | 13.0 | 0.00 | 0.00 | 0.00 | 29 | 1007.5 |
| 20260508225913 | 64 | 324 | 3.0 | 9.0 | 0.00 | 0.00 | 0.00 | 29 | 1007.6 |
| 20260508225414 | 64 | 315 | 2.0 | 9.0 | 0.00 | 0.00 | 0.00 | 29 | 1007.6 |
| 20260508224913 | 64 | 289 | 4.0 | 6.0 | 0.00 | 0.00 | 0.00 | 30 | 1007.6 |
| 20260508224414 | 64 | 281 | 4.0 | 12.0 | 0.00 | 0.00 | 0.00 | 28 | 1007.6 |
| 20260508223913 | 64 | 277 | 4.0 | 11.0 | 0.00 | 0.00 | 0.00 | 28 | 1007.6 |
| 20260508223414 | 64 | 5 | 5.0 | 10.0 | 0.00 | 0.00 | 0.00 | 28 | 1007.6 |
| 20260508222914 | 64 | 26 | 5.0 | 15.0 | 0.00 | 0.00 | 0.00 | 27 | 1007.5 |
| 20260508222414 | 64 | 340 | 4.0 | 9.0 | 0.00 | 0.00 | 0.00 | 28 | 1007.6 |
| 20260508221914 | 64 | 324 | 4.0 | 9.0 | 0.00 | 0.00 | 0.00 | 28 | 1007.6 |
| 20260508221414 | 64 | 304 | 5.0 | 11.0 | 0.00 | 0.00 | 0.00 | 27 | 1007.6 |
| 20260508220914 | 64 | 297 | 6.0 | 14.0 | 0.00 | 0.00 | 0.00 | 27 | 1007.5 |
| 20260508220414 | 65 | 327 | 4.0 | 12.0 | 0.00 | 0.00 | 0.00 | 26 | 1007.5 |
| 20260508215914 | 65 | 327 | 3.0 | 7.0 | 0.00 | 0.00 | 0.00 | 29 | 1007.6 |
| 20260508215414 | 65 | 14 | 4.0 | 10.0 | 0.00 | 0.00 | 0.00 | 27 | 1007.7 |
| 20260508214914 | 65 | 314 | 3.0 | 9.0 | 0.00 | 0.00 | 0.00 | 29 | 1007.6 |
| 20260508214414 | 65 | 339 | 5.0 | 13.0 | 0.00 | 0.00 | 0.00 | 29 | 1007.6 |
| 20260508213914 | 65 | 323 | 6.0 | 11.0 | 0.00 | 0.00 | 0.00 | 29 | 1007.6 |
| 20260508213414 | 65 | 349 | 4.0 | 13.0 | 0.00 | 0.00 | 0.00 | 29 | 1007.7 |
| 20260508212914 | 65 | 297 | 3.0 | 5.0 | 0.00 | 0.00 | 0.00 | 29 | 1007.7 |
| 20260508212414 | 64 | 18 | 6.0 | 11.0 | 0.00 | 0.00 | 0.00 | 29 | 1007.7 |
| 20260508211914 | 64 | 320 | 5.0 | 13.0 | 0.00 | 0.00 | 0.00 | 28 | 1007.8 |
| 20260508211414 | 65 | 299 | 2.0 | 13.0 | 0.00 | 0.00 | 0.00 | 30 | 1007.8 |
| 20260508210914 | 64 | 5 | 4.0 | 6.0 | 0.00 | 0.00 | 0.00 | 28 | 1007.8 |
| 20260508210414 | 65 | 250 | 5.0 | 13.0 | 0.00 | 0.00 | 0.00 | 28 | 1007.9 |
| 20260508205914 | 65 | 275 | 3.0 | 14.0 | 0.00 | 0.00 | 0.00 | 29 | 1007.9 |
| 20260508205414 | 65 | 208 | 1.0 | 4.0 | 0.00 | 0.00 | 0.00 | 30 | 1007.9 |
| 20260508204914 | 64 | 263 | 3.0 | 7.0 | 0.00 | 0.00 | 0.00 | 30 | 1008.0 |
| 20260508204414 | 64 | 288 | 6.0 | 10.0 | 0.00 | 0.00 | 0.00 | 29 | 1008.1 |
| 20260508203914 | 64 | 335 | 5.0 | 12.0 | 0.00 | 0.00 | 0.00 | 30 | 1008.0 |
| 20260508203414 | 64 | 259 | 2.0 | 14.0 | 0.00 | 0.00 | 0.00 | 33 | 1008.2 |
| 20260508202914 | 64 | 198 | 3.0 | 6.0 | 0.00 | 0.00 | 0.00 | 33 | 1008.2 |
| 20260508202414 | 64 | 254 | 4.0 | 12.0 | 0.00 | 0.00 | 0.00 | 32 | 1008.3 |
| 20260508201914 | 64 | 306 | 4.0 | 14.0 | 0.00 | 0.00 | 0.00 | 35 | 1008.3 |
| 20260508201414 | 64 | 307 | 4.0 | 14.0 | 0.00 | 0.00 | 0.00 | 34 | 1008.3 |
| 20260508200914 | 64 | 331 | 4.0 | 11.0 | 0.00 | 0.00 | 0.00 | 32 | 1008.4 |
| 20260508200414 | 64 | 310 | 4.0 | 13.0 | 0.00 | 0.00 | 0.00 | 32 | 1008.5 |
| 20260508195914 | 64 | 263 | 6.0 | 13.0 | 0.00 | 0.00 | 0.00 | 35 | 1008.7 |
| 20260508195414 | 64 | 302 | 6.0 | 15.0 | 0.00 | 0.00 | 0.00 | 33 | 1008.8 |
| 20260508194914 | 64 | 253 | 3.0 | 11.0 | 0.00 | 0.00 | 0.00 | 33 | 1008.8 |
| 20260508194414 | 64 | 301 | 4.0 | 7.0 | 0.00 | 0.00 | 0.00 | 33 | 1008.9 |
| 20260508193914 | 63 | 200 | 4.0 | 12.0 | 0.00 | 0.00 | 0.00 | 30 | 1009.0 |
| 20260508193414 | 64 | 281 | 3.0 | 8.0 | 0.00 | 0.00 | 0.00 | 34 | 1009.0 |
| 20260508192914 | 63 | 259 | 4.0 | 11.0 | 0.00 | 0.00 | 0.00 | 33 | 1009.2 |
| 20260508192414 | 64 | 259 | 4.0 | 10.0 | 0.00 | 0.00 | 0.00 | 35 | 1009.2 |
| 20260508191914 | 63 | 225 | 4.0 | 12.0 | 0.00 | 0.00 | 0.00 | 34 | 1009.2 |
| 20260508191414 | 63 | 268 | 4.0 | 10.0 | 0.00 | 0.00 | 0.00 | 35 | 1009.2 |
| 20260508190914 | 63 | 232 | 4.0 | 12.0 | 0.00 | 0.00 | 0.00 | 34 | 1009.5 |
| 20260508190414 | 63 | 227 | 5.0 | 12.0 | 0.00 | 0.00 | 0.00 | 33 | 1009.5 |
| 20260508185915 | 63 | 264 | 5.0 | 14.0 | 0.00 | 0.00 | 0.00 | 35 | 1009.6 |
| 20260508185414 | 63 | 196 | 3.0 | 9.0 | 0.00 | 0.00 | 0.00 | 38 | 1009.6 |
| 20260508184914 | 63 | 217 | 4.0 | 7.0 | 0.00 | 0.00 | 0.00 | 36 | 1009.8 |
| 20260508184414 | 63 | 250 | 4.0 | 12.0 | 0.00 | 0.00 | 0.00 | 37 | 1009.8 |
| 20260508183914 | 63 | 240 | 3.0 | 12.0 | 0.00 | 0.00 | 0.00 | 35 | 1009.7 |
| 20260508183414 | 62 | 267 | 2.0 | 7.0 | 0.00 | 0.00 | 0.00 | 37 | 1009.7 |
| 20260508182914 | 63 | 259 | 3.0 | 6.0 | 0.00 | 0.00 | 0.00 | 40 | 1009.9 |
| 20260508182414 | 62 | 311 | 3.0 | 12.0 | 0.00 | 0.00 | 0.00 | 38 | 1009.9 |
| 20260508181914 | 62 | 251 | 3.0 | 7.0 | 0.00 | 0.00 | 0.00 | 40 | 1010.0 |
| 20260508181414 | 61 | 223 | 4.0 | 12.0 | 0.00 | 0.00 | 0.00 | 39 | 1010.0 |
| 20260508180914 | 61 | 283 | 4.0 | 11.0 | 0.00 | 0.00 | 0.00 | 41 | 1010.1 |
| 20260508180414 | 61 | 284 | 3.0 | 11.0 | 0.00 | 0.00 | 0.00 | 40 | 1010.2 |
| 20260508175914 | 61 | 252 | 4.0 | 11.0 | 0.00 | 0.00 | 0.00 | 40 | 1010.4 |
| 20260508175414 | 60 | 206 | 3.0 | 14.0 | 0.00 | 0.00 | 0.00 | 42 | 1010.3 |
| 20260508174914 | 61 | 281 | 2.0 | 10.0 | 0.00 | 0.00 | 0.00 | 39 | 1010.4 |
| 20260508174414 | 61 | 250 | 3.0 | 7.0 | 0.00 | 0.00 | 0.00 | 38 | 1010.5 |
| 20260508173914 | 61 | 227 | 3.0 | 11.0 | 0.00 | 0.00 | 0.00 | 40 | 1010.6 |
| 20260508173414 | 61 | 225 | 2.0 | 13.0 | 0.00 | 0.00 | 0.00 | 43 | 1010.6 |
| 20260508172915 | 60 | 234 | 2.0 | 6.0 | 0.00 | 0.00 | 0.00 | 41 | 1010.8 |
| 20260508172415 | 60 | 271 | 2.0 | 11.0 | 0.00 | 0.00 | 0.00 | 41 | 1010.8 |
| 20260508171915 | 60 | 207 | 4.0 | 5.0 | 0.00 | 0.00 | 0.00 | 43 | 1010.8 |
| 20260508171415 | 60 | 244 | 4.0 | 13.0 | 0.00 | 0.00 | 0.00 | 42 | 1010.8 |
| 20260508170915 | 61 | 281 | 3.0 | 7.0 | 0.00 | 0.00 | 0.00 | 44 | 1010.8 |
| 20260508170415 | 60 | 165 | 3.0 | 11.0 | 0.00 | 0.00 | 0.00 | 42 | 1010.9 |
| 20260508165915 | 60 | 235 | 4.0 | 9.0 | 0.00 | 0.00 | 0.00 | 44 | 1011.1 |
| 20260508165415 | 60 | 258 | 4.0 | 9.0 | 0.00 | 0.00 | 0.00 | 42 | 1011.1 |
| 20260508164915 | 60 | 213 | 4.0 | 17.0 | 0.00 | 0.00 | 0.00 | 41 | 1011.2 |
| 20260508164415 | 60 | 260 | 3.0 | 10.0 | 0.00 | 0.00 | 0.00 | 41 | 1011.2 |
| 20260508163915 | 61 | 220 | 2.0 | 10.0 | 0.00 | 0.00 | 0.00 | 39 | 1011.4 |
| 20260508163415 | 60 | 88 | 2.0 | 6.0 | 0.00 | 0.00 | 0.00 | 38 | 1011.5 |
| 20260508162915 | 60 | 321 | 3.0 | 10.0 | 0.00 | 0.00 | 0.00 | 40 | 1011.6 |
| 20260508162415 | 60 | 209 | 3.0 | 12.0 | 0.00 | 0.00 | 0.00 | 41 | 1011.6 |
| 20260508161915 | 60 | 14 | 2.0 | 6.0 | 0.00 | 0.00 | 0.00 | 39 | 1011.5 |
| 20260508161415 | 60 | 267 | 1.0 | 7.0 | 0.00 | 0.00 | 0.00 | 41 | 1011.7 |
| 20260508160915 | 59 | 271 | 0.0 | 4.0 | 0.00 | 0.00 | 0.00 | 41 | 1011.6 |
| 20260508160415 | 59 | 290 | 1.0 | 5.0 | 0.00 | 0.00 | 0.00 | 41 | 1011.7 |
| 20260508155915 | 58 | 301 | 2.0 | 5.0 | 0.00 | 0.00 | 0.00 | 40 | 1011.8 |
| 20260508155415 | 58 | 334 | 3.0 | 6.0 | 0.00 | 0.00 | 0.00 | 41 | 1011.8 |
| 20260508154915 | 58 | 292 | 2.0 | 12.0 | 0.00 | 0.00 | 0.00 | 39 | 1011.8 |
| 20260508154415 | 58 | 248 | 1.0 | 7.0 | 0.00 | 0.00 | 0.00 | 40 | 1011.8 |
| 20260508153915 | 58 | 218 | 1.0 | 4.0 | 0.00 | 0.00 | 0.00 | 40 | 1011.8 |
| 20260508153415 | 58 | 333 | 2.0 | 5.0 | 0.00 | 0.00 | 0.00 | 40 | 1011.6 |
| 20260508152915 | 58 | 249 | 2.0 | 6.0 | 0.00 | 0.00 | 0.00 | 41 | 1011.7 |
| 20260508152415 | 58 | 194 | 1.0 | 6.0 | 0.00 | 0.00 | 0.00 | 43 | 1011.6 |
| 20260508151915 | 58 | 230 | 1.0 | 4.0 | 0.00 | 0.00 | 0.00 | 41 | 1011.7 |
| 20260508151415 | 58 | 146 | 1.0 | 4.0 | 0.00 | 0.00 | 0.00 | 43 | 1011.8 |
| 20260508150915 | 58 | 323 | 0.0 | 4.0 | 0.00 | 0.00 | 0.00 | 45 | 1011.8 |
| 20260508150415 | 57 | 267 | 1.0 | 4.0 | 0.00 | 0.00 | 0.00 | 44 | 1011.8 |
| 20260508145915 | 57 | 325 | 1.0 | 6.0 | 0.00 | 0.00 | 0.00 | 47 | 1011.9 |
| 20260508145415 | 56 | 261 | 0.0 | 3.0 | 0.00 | 0.00 | 0.00 | 51 | 1012.0 |
| 20260508144915 | 56 | 174 | 1.0 | 3.0 | 0.00 | 0.00 | 0.00 | 50 | 1012.0 |
| 20260508144415 | 56 | 243 | 1.0 | 4.0 | 0.00 | 0.00 | 0.00 | 54 | 1012.1 |
| 20260508143915 | 56 | 139 | 0.0 | 5.0 | 0.00 | 0.00 | 0.00 | 50 | 1012.0 |
| 20260508143415 | 56 | 59 | 0.0 | 3.0 | 0.00 | 0.00 | 0.00 | 53 | 1012.1 |
| 20260508142915 | 56 | 170 | 0.0 | 3.0 | 0.00 | 0.00 | 0.00 | 54 | 1012.2 |
| 20260508142415 | 55 | 188 | 1.0 | 3.0 | 0.00 | 0.00 | 0.00 | 56 | 1012.3 |
| 20260508141915 | 55 | 218 | 1.0 | 5.0 | 0.00 | 0.00 | 0.00 | 56 | 1012.4 |
| 20260508141415 | 56 | 177 | 1.0 | 4.0 | 0.00 | 0.00 | 0.00 | 58 | 1012.3 |
| 20260508140915 | 55 | 96 | 0.0 | 2.0 | 0.00 | 0.00 | 0.00 | 58 | 1012.3 |
| 20260508140415 | 55 | 119 | 0.0 | 2.0 | 0.00 | 0.00 | 0.00 | 62 | 1012.4 |
| 20260508135915 | 54 | 68 | 0.0 | 2.0 | 0.00 | 0.00 | 0.00 | 62 | 1012.5 |
| 20260508135415 | 54 | 308 | 0.0 | 1.0 | 0.00 | 0.00 | 0.00 | 65 | 1012.5 |
| 20260508134915 | 53 | 308 | 0.0 | 2.0 | 0.00 | 0.00 | 0.00 | 67 | 1012.5 |
| 20260508134415 | 53 | 301 | 0.0 | 0.0 | 0.00 | 0.00 | 0.00 | 69 | 1012.5 |
| 20260508133915 | 52 | 301 | 0.0 | 1.0 | 0.00 | 0.00 | 0.00 | 68 | 1012.5 |
| 20260508133415 | 52 | 254 | 0.0 | 0.0 | 0.00 | 0.00 | 0.00 | 70 | 1012.5 |
| 20260508132915 | 51 | 23 | 0.0 | 0.0 | 0.00 | 0.00 | 0.00 | 75 | 1012.6 |
| 20260508132415 | 51 | 23 | 0.0 | 1.0 | 0.00 | 0.00 | 0.00 | 79 | 1012.5 |
| 20260508131915 | 50 | 248 | 0.0 | 0.0 | 0.00 | 0.00 | 0.00 | 83 | 1012.5 |
| 20260508131415 | 49 | 248 | 0.0 | 0.0 | 0.00 | 0.00 | 0.00 | 86 | 1012.6 |
| 20260508130915 | 48 | 248 | 0.0 | 1.0 | 0.00 | 0.00 | 0.00 | 87 | 1012.7 |
| 20260508130415 | 48 | 227 | 0.0 | 2.0 | 0.00 | 0.00 | 0.00 | 88 | 1012.7 |
| 20260508125915 | 47 | 225 | 0.0 | 1.0 | 0.00 | 0.00 | 0.00 | 89 | 1012.7 |
| 20260508125415 | 47 | 171 | 0.0 | 2.0 | 0.00 | 0.00 | 0.00 | 90 | 1012.8 |
| 20260508124915 | 46 | 213 | 0.0 | 1.0 | 0.00 | 0.00 | 0.00 | 91 | 1012.8 |
| 20260508124415 | 46 | 246 | 0.0 | 1.0 | 0.00 | 0.00 | 0.00 | 92 | 1012.9 |
| 20260508123915 | 46 | 217 | 0.0 | 2.0 | 0.00 | 0.00 | 0.00 | 92 | 1012.8 |
| 20260508123415 | 45 | 221 | 0.0 | 1.0 | 0.00 | 0.00 | 0.00 | 93 | 1012.8 |
| 20260508122915 | 45 | 184 | 0.0 | 0.0 | 0.00 | 0.00 | 0.00 | 94 | 1012.8 |
| 20260508122415 | 44 | 164 | 0.0 | 0.0 | 0.00 | 0.00 | 0.00 | 95 | 1012.8 |
| 20260508121915 | 43 | 164 | 0.0 | 1.0 | 0.00 | 0.00 | 0.00 | 95 | 1012.8 |
| 20260508121415 | 42 | 164 | 0.0 | 0.0 | 0.00 | 0.00 | 0.00 | 95 | 1012.9 |
| 20260508120915 | 41 | 165 | 0.0 | 0.0 | 0.00 | 0.00 | 0.00 | 95 | 1012.8 |
| 20260508120415 | 40 | 164 | 0.0 | 0.0 | 0.00 | 0.00 | 0.00 | 95 | 1012.8 |
| 20260508115916 | 40 | 164 | 0.0 | 0.0 | 0.00 | 0.00 | 0.00 | 95 | 1012.7 |
| 20260508115416 | 39 | 165 | 0.0 | 0.0 | 0.00 | 0.00 | 0.00 | 95 | 1012.7 |
| 20260508114916 | 38 | 164 | 0.0 | 0.0 | 0.00 | 0.00 | 0.00 | 95 | 1012.7 |
| 20260508114416 | 38 | 164 | 0.0 | 0.0 | 0.00 | 0.00 | 0.00 | 95 | 1012.7 |
| 20260508113916 | 36 | 165 | 0.0 | 0.0 | 0.00 | 0.00 | 0.00 | 95 | 1012.6 |
| 20260508113416 | 36 | 164 | 0.0 | 0.0 | 0.00 | 0.00 | 0.00 | 95 | 1012.5 |
| 20260508112916 | 35 | 164 | 0.0 | 0.0 | 0.00 | 0.00 | 0.00 | 95 | 1012.4 |
| 20260508112416 | 35 | 164 | 0.0 | 0.0 | 0.00 | 0.00 | 0.00 | 95 | 1012.4 |
| 20260508111916 | 34 | 164 | 0.0 | 0.0 | 0.00 | 0.00 | 0.00 | 94 | 1012.3 |
| 20260508111416 | 34 | 164 | 0.0 | 0.0 | 0.00 | 0.00 | 0.00 | 94 | 1012.3 |
| 20260508110916 | 33 | 164 | 0.0 | 0.0 | 0.00 | 0.00 | 0.00 | 94 | 1012.2 |
| 20260508110416 | 33 | 164 | 0.0 | 0.0 | 0.00 | 0.00 | 0.00 | 94 | 1012.2 |
| 20260508105916 | 33 | 164 | 0.0 | 0.0 | 0.00 | 0.00 | 0.00 | 94 | 1012.2 |
| 20260508105416 | 33 | 164 | 0.0 | 0.0 | 0.00 | 0.00 | 0.00 | 94 | 1012.1 |
| 20260508104916 | 33 | 164 | 0.0 | 0.0 | 0.00 | 0.00 | 0.00 | 94 | 1012.1 |
| 20260508104416 | 33 | 164 | 0.0 | 0.0 | 0.00 | 0.00 | 0.00 | 94 | 1012.1 |
| 20260508103916 | 33 | 164 | 0.0 | 0.0 | 0.00 | 0.00 | 0.00 | 93 | 1012.0 |
| 20260508103416 | 33 | 164 | 0.0 | 0.0 | 0.00 | 0.00 | 0.00 | 93 | 1012.0 |
| 20260508102916 | 33 | 164 | 0.0 | 0.0 | 0.00 | 0.00 | 0.00 | 93 | 1011.9 |
| 20260508102416 | 33 | 164 | 0.0 | 0.0 | 0.00 | 0.00 | 0.00 | 93 | 1011.8 |
| 20260508101916 | 33 | 164 | 0.0 | 0.0 | 0.00 | 0.00 | 0.00 | 93 | 1011.9 |
| 20260508101416 | 34 | 164 | 0.0 | 0.0 | 0.00 | 0.00 | 0.00 | 93 | 1011.8 |
| 20260508100916 | 34 | 164 | 0.0 | 0.0 | 0.00 | 0.00 | 0.00 | 93 | 1011.7 |
| 20260508100416 | 34 | 165 | 0.0 | 0.0 | 0.00 | 0.00 | 0.00 | 93 | 1011.7 |
| 20260508095916 | 34 | 164 | 0.0 | 0.0 | 0.00 | 0.00 | 0.00 | 94 | 1011.8 |
| 20260508095416 | 34 | 69 | 0.0 | 0.0 | 0.00 | 0.00 | 0.00 | 93 | 1011.8 |
| 20260508094916 | 34 | 69 | 0.0 | 0.0 | 0.00 | 0.00 | 0.00 | 93 | 1011.9 |
| 20260508094416 | 34 | 69 | 0.0 | 0.0 | 0.00 | 0.00 | 0.00 | 93 | 1012.1 |
| 20260508093916 | 34 | 69 | 0.0 | 0.0 | 0.00 | 0.00 | 0.00 | 93 | 1012.1 |
| 20260508093416 | 35 | 69 | 0.0 | 0.0 | 0.00 | 0.00 | 0.00 | 93 | 1012.1 |
| 20260508092916 | 35 | 69 | 0.0 | 0.0 | 0.00 | 0.00 | 0.00 | 93 | 1012.1 |
| 20260508092416 | 35 | 69 | 0.0 | 0.0 | 0.00 | 0.00 | 0.00 | 93 | 1012.2 |
| 20260508091916 | 35 | 69 | 0.0 | 0.0 | 0.00 | 0.00 | 0.00 | 93 | 1012.2 |
| 20260508091416 | 35 | 69 | 0.0 | 0.0 | 0.00 | 0.00 | 0.00 | 93 | 1012.2 |
| 20260508090916 | 35 | 69 | 0.0 | 0.0 | 0.00 | 0.00 | 0.00 | 93 | 1012.2 |
| 20260508090416 | 35 | 69 | 0.0 | 0.0 | 0.00 | 0.00 | 0.00 | 93 | 1012.2 |
| 20260508090153 | 36 | 69 | 0.0 | 0.0 | 0.00 | 0.00 | 0.00 | 93 | 1012.2 |
| 20260508085916 | 36 | 69 | 0.0 | 0.0 | 0.00 | 0.00 | 0.00 | 93 | 1012.2 |
| 20260508085416 | 36 | 69 | 0.0 | 0.0 | 0.00 | 0.00 | 0.00 | 93 | 1012.1 |
| 20260508084916 | 36 | 69 | 0.0 | 0.0 | 0.00 | 0.00 | 0.00 | 93 | 1012.1 |
| 20260508084510 | 36 | 69 | 0.0 | 0.0 | 0.00 | 0.00 | 0.00 | 93 | 1012.2 |
| 20260508084416 | 36 | 69 | 0.0 | 0.0 | 0.00 | 0.00 | 0.00 | 93 | 1012.2 |
| 20260508083916 | 36 | 69 | 0.0 | 0.0 | 0.00 | 0.00 | 0.00 | 93 | 1012.2 |
| 20260508083416 | 36 | 69 | 0.0 | 0.0 | 0.00 | 0.00 | 0.00 | 94 | 1012.1 |
| 20260508082916 | 36 | 69 | 0.0 | 0.0 | 0.00 | 0.00 | 0.00 | 93 | 1012.1 |
| 20260508082416 | 35 | 69 | 0.0 | 0.0 | 0.00 | 0.00 | 0.00 | 93 | 1012.2 |
| 20260508081916 | 35 | 69 | 0.0 | 0.0 | 0.00 | 0.00 | 0.00 | 93 | 1012.1 |
| 20260508081416 | 35 | 69 | 0.0 | 0.0 | 0.00 | 0.00 | 0.00 | 93 | 1012.2 |
| 20260508080916 | 35 | 69 | 0.0 | 0.0 | 0.00 | 0.00 | 0.00 | 93 | 1012.1 |
| 20260508080416 | 35 | 69 | 0.0 | 0.0 | 0.00 | 0.00 | 0.00 | 93 | 1012.2 |
| 20260508075916 | 35 | 69 | 0.0 | 0.0 | 0.00 | 0.00 | 0.00 | 93 | 1012.2 |
| 20260508075416 | 35 | 69 | 0.0 | 0.0 | 0.00 | 0.00 | 0.00 | 93 | 1012.2 |
| 20260508074916 | 36 | 69 | 0.0 | 0.0 | 0.00 | 0.00 | 0.00 | 93 | 1012.2 |
| 20260508074416 | 36 | 69 | 0.0 | 0.0 | 0.00 | 0.00 | 0.00 | 93 | 1012.1 |
| 20260508073916 | 36 | 69 | 0.0 | 0.0 | 0.00 | 0.00 | 0.00 | 92 | 1012.2 |
| 20260508073416 | 36 | 69 | 0.0 | 0.0 | 0.00 | 0.00 | 0.00 | 92 | 1012.3 |
| 20260508072916 | 36 | 69 | 0.0 | 0.0 | 0.00 | 0.00 | 0.00 | 92 | 1012.3 |
| 20260508072416 | 36 | 69 | 0.0 | 0.0 | 0.00 | 0.00 | 0.00 | 92 | 1012.3 |
| 20260508071916 | 36 | 69 | 0.0 | 0.0 | 0.00 | 0.00 | 0.00 | 92 | 1012.4 |
| 20260508071416 | 36 | 69 | 0.0 | 0.0 | 0.00 | 0.00 | 0.00 | 92 | 1012.4 |
| 20260508070916 | 36 | 69 | 0.0 | 0.0 | 0.00 | 0.00 | 0.00 | 92 | 1012.4 |
| 20260508070417 | 36 | 69 | 0.0 | 0.0 | 0.00 | 0.00 | 0.00 | 92 | 1012.5 |
| 20260508065917 | 36 | 69 | 0.0 | 0.0 | 0.00 | 0.00 | 0.00 | 92 | 1012.5 |
| 20260508065417 | 37 | 69 | 0.0 | 0.0 | 0.00 | 0.00 | 0.00 | 92 | 1012.6 |
| 20260508064917 | 37 | 69 | 0.0 | 0.0 | 0.00 | 0.00 | 0.00 | 92 | 1012.6 |
| 20260508064417 | 37 | 69 | 0.0 | 0.0 | 0.00 | 0.00 | 0.00 | 92 | 1012.7 |
| 20260508063917 | 37 | 69 | 0.0 | 0.0 | 0.00 | 0.00 | 0.00 | 92 | 1012.7 |
| 20260508063417 | 37 | 69 | 0.0 | 0.0 | 0.00 | 0.00 | 0.00 | 92 | 1012.7 |
| 20260508062917 | 37 | 69 | 0.0 | 0.0 | 0.00 | 0.00 | 0.00 | 92 | 1012.7 |
| 20260508062417 | 37 | 69 | 0.0 | 0.0 | 0.00 | 0.00 | 0.00 | 92 | 1012.8 |
| 20260508061917 | 37 | 69 | 0.0 | 0.0 | 0.00 | 0.00 | 0.00 | 92 | 1012.7 |
| 20260508061417 | 37 | 69 | 0.0 | 0.0 | 0.00 | 0.00 | 0.00 | 92 | 1012.8 |
| 20260508060917 | 38 | 69 | 0.0 | 0.0 | 0.00 | 0.00 | 0.00 | 92 | 1012.8 |
| 20260508060417 | 38 | 69 | 0.0 | 0.0 | 0.00 | 0.00 | 0.00 | 92 | 1012.8 |
| 20260508055917 | 38 | 69 | 0.0 | 0.0 | 0.00 | 0.00 | 0.00 | 92 | 1012.9 |
| 20260508055417 | 37 | 69 | 0.0 | 0.0 | 0.00 | 0.00 | 0.00 | 92 | 1013.0 |
| 20260508054917 | 37 | 69 | 0.0 | 0.0 | 0.00 | 0.00 | 0.00 | 91 | 1013.0 |
| 20260508054417 | 37 | 69 | 0.0 | 0.0 | 0.00 | 0.00 | 0.00 | 91 | 1013.0 |
| 20260508053917 | 38 | 69 | 0.0 | 0.0 | 0.00 | 0.00 | 0.00 | 91 | 1013.0 |
| 20260508053417 | 37 | 69 | 0.0 | 0.0 | 0.00 | 0.00 | 0.00 | 91 | 1012.9 |
| 20260508052917 | 38 | 69 | 0.0 | 0.0 | 0.00 | 0.00 | 0.00 | 91 | 1012.9 |
| 20260508052417 | 38 | 69 | 0.0 | 0.0 | 0.00 | 0.00 | 0.00 | 91 | 1013.0 |
| 20260508051917 | 38 | 69 | 0.0 | 0.0 | 0.00 | 0.00 | 0.00 | 91 | 1012.8 |
| 20260508051417 | 38 | 69 | 0.0 | 0.0 | 0.00 | 0.00 | 0.00 | 90 | 1012.8 |
| 20260508050917 | 38 | 69 | 0.0 | 0.0 | 0.00 | 0.00 | 0.00 | 90 | 1012.7 |
| 20260508050417 | 38 | 190 | 0.0 | 1.0 | 0.00 | 0.00 | 0.00 | 89 | 1012.6 |
| 20260508045918 | 38 | 190 | 0.0 | 0.0 | 0.00 | 0.00 | 0.00 | 89 | 1012.6 |
| 20260508045417 | 38 | 190 | 0.0 | 0.0 | 0.00 | 0.00 | 0.00 | 89 | 1012.6 |
| 20260508044917 | 39 | 190 | 0.0 | 0.0 | 0.00 | 0.00 | 0.00 | 89 | 1012.4 |
| 20260508044417 | 39 | 190 | 0.0 | 0.0 | 0.00 | 0.00 | 0.00 | 89 | 1012.4 |
| 20260508043917 | 39 | 190 | 0.0 | 0.0 | 0.00 | 0.00 | 0.00 | 89 | 1012.4 |